This demonstration page uses our WeatherBlox Daily Observations layout. Learn more.

Left ArrowRight Arrow

34.16533, -84.80231

Hourly Observations for July 28, 2017

Temp ( °F °C ) Dew Point ( °F °C ) Humidity (%) Winds ( mph kmh ) Pressure ( in mb ) Visibility ( mi km ) Precip ( " mm )
12:53 am 00:53 Clear with Mist and Fog 72 22.2 72 22.2 100 100 Calm 29.93 1013 6 10 0.00 0.00
1:53 am 01:53 Clear with Mist and Fog 71 21.7 71 21.7 100 100 Calm 29.91 1013 6 10 0.00 0.00
2:53 am 02:53 Clear with Mist and Fog 71 21.7 71 21.7 100 100 Calm 29.90 1012 6 10 0.00 0.00
3:53 am 03:53 Clear with Mist and Fog 71 21.7 71 21.7 100 100 Calm 29.89 1012 6 10 0.00 0.00
4:53 am 04:53 Clear with Mist and Fog 71 21.7 71 21.7 100 100 Calm 29.88 1012 6 10 0.00 0.00
5:53 am 05:53 Mostly Clear with Mist and Fog 71 21.7 71 21.7 100 100 Calm 29.88 1012 5 8 0.00 0.00
6:53 am 06:53 Sunny with Mist and Fog 71 21.7 71 21.7 100 100 Calm 29.88 1012 5 8 0.00 0.00
7:53 am 07:53 Sunny with Mist and Fog 73 22.8 73 22.8 100 100 Calm 29.88 1012 4 6 0.00 0.00
8:53 am 08:53 Sunny with Mist and Fog 76 24.4 76 24.4 100 100 Calm 29.89 1012 6 10 0.00 0.00
9:53 am 09:53 Sunny with Mist and Fog 78 25.6 76 24.4 93 93 Calm 29.90 1013 6 10 0.00 0.00
10:53 am 10:53 Mostly Sunny 79 26.1 76 24.4 90 90 Calm 29.91 1013 7 11 0.00 0.00
11:22 am 11:22 Mostly Cloudy 79 26.1 76 24.4 90 90 W 5 7 29.91 1013 7 11 0.00 0.00
11:53 am 11:53 Cloudy with Light Rain 78 25.6 75 23.9 90 90 VRB 5 7 29.92 1013 6 10 0.00 0.03
12:05 pm 12:05 Cloudy with Light Rain 76 24.4 75 23.9 97 97 VRB 3 6 29.94 1014 4 6 0.01 0.25
12:27 pm 12:27 Cloudy with Rain 74 23.3 74 23.3 100 100 Calm 29.97 1015 2 3 0.06 1.52
12:43 pm 12:43 Cloudy with Light Rain 74 23.3 74 23.3 100 100 VRB 5 7 29.94 1014 3 5 0.17 4.32
12:53 pm 12:53 Cloudy with Light Rain 75 23.9 75 23.9 100 100 Calm 29.91 1013 5 8 0.17 4.32
1:53 pm 13:53 Cloudy with Light Rain 75 23.9 74 23.3 96 96 Calm 29.88 1012 6 10 0.01 0.25
2:53 pm 14:53 Cloudy with Light Rain 77 25 76 24.4 96 96 Calm 29.85 1011 6 10 0.01 0.25
3:53 pm 15:53 Partly Cloudy 79 26.1 76 24.4 90 90 VRB 3 6 29.83 1010 8 13 0.00 0.03
4:02 pm 16:02 Mostly Cloudy 79 26.1 76 24.4 90 90 VRB 5 7 29.83 1010 8 13 0.00 0.00
4:51 pm 16:51 Partly Cloudy 82 28 75 24 79 79 VRB 5 7 29.80 1009 8 13 0.00 0.00
4:53 pm 16:53 Mostly Sunny 83 28.3 76 24.4 79 79 VRB 5 7 29.80 1009 8 13 0.00 0.00
5:18 pm 17:18 Mostly Cloudy 81 27.2 76 24.4 85 85 VRB 3 6 29.80 1009 8 13 0.00 0.00
5:53 pm 17:53 Mostly Cloudy 81 27.2 75 23.9 82 82 VRB 6 9 29.78 1009 8 13 0.00 0.00
6:53 pm 18:53 Cloudy 80 26.7 76 24.4 87 87 VRB 3 6 29.78 1009 8 13 0.00 0.00
7:53 pm 19:53 Cloudy 79 26.1 76 24.4 90 90 VRB 3 6 29.78 1009 8 13 0.00 0.00
8:53 pm 20:53 Cloudy 79 26.1 75 23.9 88 88 VRB 3 6 29.78 1009 10 16 0.00 0.00
9:53 pm 21:53 Mostly Cloudy 78 25.6 75 23.9 90 90 Calm 29.77 1008 10 16 0.00 0.00
10:23 pm 22:23 Mostly Cloudy 78 25.6 75 23.9 90 90 Calm 29.80 1009 10 16 0.00 0.00
10:53 pm 22:53 Cloudy 77 25 75 23.9 94 94 Calm 29.78 1009 10 16 0.00 0.00
11:53 pm 23:53 Cloudy 77 25 75 23.9 94 94 Calm 29.78 1008 9 14 0.00 0.00

Powered by AerisWeather